Time,TemperatureF,DewpointF,PressureIn,WindDirection,WindDirectionDegrees,WindSpeedMPH,WindSpeedGustMPH,Humidity,HourlyPrecipIn,Conditions,Clouds,dailyrainin,SolarRadiationWatts/m^2,SoftwareType,DateUTC
2013-01-08 00:02:00,39.6,19.5,29.62,North,-999,33.0,42.0,44,0.00,,,0.00,0.00,VWS V14.01,2013-01-08 07:02:00,
2013-01-08 00:07:00,39.6,19.5,29.62,North,-999,41.0,44.0,44,0.00,,,0.00,0.00,VWS V14.01,2013-01-08 07:07:00,
2013-01-08 00:12:00,40.1,19.4,29.62,North,-999,28.0,45.0,43,0.00,,,0.00,0.00,VWS V14.01,2013-01-08 07:12:00,
2013-01-08 00:17:00,40.1,19.4,29.62,North,-999,33.0,45.0,43,0.00,,,0.00,0.00,VWS V14.01,2013-01-08 07:17:00,
2013-01-08 00:22:00,40.3,19.0,29.62,North,-999,29.0,46.0,42,0.00,,,0.00,0.00,VWS V14.01,2013-01-08 07:22:00,
2013-01-08 00:27:00,40.3,19.0,29.62,North,-999,34.0,46.0,42,0.00,,,0.00,0.00,VWS V14.01,2013-01-08 07:27:00,
2013-01-08 00:32:00,40.4,19.1,29.62,North,-999,40.0,41.0,42,0.00,,,0.00,0.00,VWS V14.01,2013-01-08 07:32:00,
2013-01-08 00:37:00,40.2,19.5,29.62,North,-999,34.0,41.0,43,0.00,,,0.00,0.00,VWS V14.01,2013-01-08 07:37:00,
2013-01-08 00:42:00,40.3,19.6,29.62,North,-999,33.0,43.0,43,0.00,,,0.00,0.00,VWS V14.01,2013-01-08 07:42:00,
2013-01-08 00:46:00,40.1,19.4,29.62,North,-999,33.0,43.0,43,0.00,,,0.00,0.00,VWS V14.01,2013-01-08 07:46:00,
2013-01-08 00:51:00,39.8,19.1,29.62,North,-999,39.0,41.0,43,0.00,,,0.00,0.00,VWS V14.01,2013-01-08 07:51:00,
2013-01-08 00:56:00,39.7,19.0,29.62,North,-999,35.0,41.0,43,0.00,,,0.00,0.00,VWS V14.01,2013-01-08 07:56:00,
2013-01-08 01:01:00,39.5,19.4,29.62,North,-999,28.0,40.0,44,0.00,,,0.00,0.00,VWS V14.01,2013-01-08 08:01:00,
2013-01-08 01:06:00,39.3,19.2,29.63,North,-999,36.0,42.0,44,0.00,,,0.00,0.00,VWS V14.01,2013-01-08 08:06:00,
2013-01-08 01:11:00,39.2,19.1,29.63,North,-999,28.0,33.0,44,0.00,,,0.00,0.00,VWS V14.01,2013-01-08 08:11:00,
2013-01-08 01:16:00,39.3,19.2,29.64,North,-999,32.0,36.0,44,0.00,,,0.00,0.00,VWS V14.01,2013-01-08 08:16:00,
2013-01-08 01:21:00,39.0,19.0,29.64,North,-999,37.0,37.0,44,0.00,,,0.00,0.00,VWS V14.01,2013-01-08 08:21:00,
2013-01-08 01:26:00,38.4,18.9,29.65,North,-999,32.0,37.0,45,0.00,,,0.00,0.00,VWS V14.01,2013-01-08 08:26:00,
2013-01-08 01:31:00,38.8,19.3,29.65,North,-999,33.0,42.0,45,0.00,,,0.00,0.00,VWS V14.01,2013-01-08 08:31:00,
2013-01-08 01:36:00,38.7,19.2,29.66,North,-999,30.0,42.0,45,0.00,,,0.00,0.00,VWS V14.01,2013-01-08 08:36:00,
2013-01-08 01:41:00,38.8,19.3,29.66,North,-999,25.0,34.0,45,0.00,,,0.00,0.00,VWS V14.01,2013-01-08 08:41:00,
2013-01-08 01:46:00,38.4,19.4,29.66,North,-999,33.0,37.0,46,0.00,,,0.00,0.00,VWS V14.01,2013-01-08 08:46:00,
2013-01-08 01:51:00,38.7,19.2,29.66,North,-999,33.0,36.0,45,0.00,,,0.00,0.00,VWS V14.01,2013-01-08 08:51:00,
2013-01-08 01:56:00,38.6,19.1,29.66,North,-999,35.0,40.0,45,0.00,,,0.00,0.00,VWS V14.01,2013-01-08 08:56:00,
2013-01-08 02:01:00,38.6,19.6,29.65,North,-999,35.0,38.0,46,0.00,,,0.00,0.00,VWS V14.01,2013-01-08 09:01:00,
2013-01-08 02:06:00,39.0,19.5,29.66,North,-999,26.0,40.0,45,0.00,,,0.00,0.00,VWS V14.01,2013-01-08 09:06:00,
2013-01-08 02:11:00,39.1,19.6,29.67,North,-999,35.0,36.0,45,0.00,,,0.00,0.00,VWS V14.01,2013-01-08 09:11:00,
2013-01-08 02:16:00,39.1,19.6,29.66,North,-999,31.0,39.0,45,0.00,,,0.00,0.00,VWS V14.01,2013-01-08 09:16:00,
2013-01-08 02:21:00,39.7,19.6,29.66,North,-999,28.0,38.0,44,0.00,,,0.00,0.00,VWS V14.01,2013-01-08 09:21:00,
2013-01-08 02:26:00,39.6,19.5,29.66,North,-999,22.0,38.0,44,0.00,,,0.00,0.00,VWS V14.01,2013-01-08 09:26:00,
2013-01-08 02:31:00,39.3,19.8,29.67,North,-999,23.0,30.0,45,0.00,,,0.00,0.00,VWS V14.01,2013-01-08 09:31:00,
2013-01-08 02:36:00,39.4,19.8,29.66,North,-999,19.0,30.0,45,0.00,,,0.00,0.00,VWS V14.01,2013-01-08 09:36:00,
2013-01-08 02:41:00,39.0,19.5,29.66,North,-999,22.0,29.0,45,0.00,,,0.00,0.00,VWS V14.01,2013-01-08 09:41:00,
2013-01-08 02:46:00,39.1,19.6,29.67,North,-999,24.0,31.0,45,0.00,,,0.00,0.00,VWS V14.01,2013-01-08 09:46:00,
2013-01-08 02:51:00,39.2,19.7,29.67,North,-999,28.0,33.0,45,0.00,,,0.00,0.00,VWS V14.01,2013-01-08 09:51:00,
2013-01-08 02:56:00,38.8,19.3,29.67,North,-999,27.0,33.0,45,0.00,,,0.00,0.00,VWS V14.01,2013-01-08 09:56:00,
2013-01-08 03:01:00,39.0,19.5,29.67,North,-999,28.0,33.0,45,0.00,,,0.00,0.00,VWS V14.01,2013-01-08 10:01:00,
2013-01-08 03:06:00,39.2,19.1,29.67,North,-999,24.0,33.0,44,0.00,,,0.00,0.00,VWS V14.01,2013-01-08 10:06:00,
2013-01-08 03:11:00,39.2,19.1,29.67,North,-999,32.0,33.0,44,0.00,,,0.00,0.00,VWS V14.01,2013-01-08 10:11:00,
2013-01-08 03:16:00,39.2,19.1,29.67,North,-999,25.0,35.0,44,0.00,,,0.00,0.00,VWS V14.01,2013-01-08 10:16:00,
2013-01-08 03:21:00,38.7,19.2,29.67,North,-999,20.0,28.0,45,0.00,,,0.00,0.00,VWS V14.01,2013-01-08 10:21:00,
2013-01-08 03:26:00,39.0,19.0,29.67,North,-999,31.0,33.0,44,0.00,,,0.00,0.00,VWS V14.01,2013-01-08 10:26:00,
2013-01-08 03:31:00,39.1,19.0,29.67,North,-999,27.0,31.0,44,0.00,,,0.00,0.00,VWS V14.01,2013-01-08 10:31:00,
2013-01-08 03:36:00,39.0,19.0,29.67,North,-999,28.0,33.0,44,0.00,,,0.00,0.00,VWS V14.01,2013-01-08 10:36:00,
2013-01-08 03:41:00,39.2,19.1,29.67,North,-999,27.0,32.0,44,0.00,,,0.00,0.00,VWS V14.01,2013-01-08 10:41:00,
2013-01-08 03:46:00,39.1,19.0,29.67,North,-999,33.0,33.0,44,0.00,,,0.00,0.00,VWS V14.01,2013-01-08 10:46:00,
2013-01-08 03:51:00,38.8,19.3,29.67,North,-999,21.0,27.0,45,0.00,,,0.00,0.00,VWS V14.01,2013-01-08 10:51:00,
2013-01-08 03:56:00,39.1,19.0,29.67,North,-999,22.0,27.0,44,0.00,,,0.00,0.00,VWS V14.01,2013-01-08 10:56:00,
2013-01-08 04:01:00,39.4,18.8,29.68,North,-999,10.0,18.0,43,0.00,,,0.00,0.00,VWS V14.01,2013-01-08 11:01:00,
2013-01-08 04:06:00,39.5,18.9,29.68,North,-999,22.0,30.0,43,0.00,,,0.00,0.00,VWS V14.01,2013-01-08 11:06:00,
2013-01-08 04:11:00,38.9,18.3,29.68,North,-999,17.0,24.0,43,0.00,,,0.00,0.00,VWS V14.01,2013-01-08 11:11:00,
2013-01-08 04:16:00,38.9,18.3,29.68,North,-999,17.0,24.0,43,0.00,,,0.00,0.00,VWS V14.01,2013-01-08 11:16:00,
2013-01-08 04:21:00,39.2,18.6,29.68,North,-999,22.0,26.0,43,0.00,,,0.00,0.00,VWS V14.01,2013-01-08 11:21:00,
2013-01-08 04:26:00,38.9,18.3,29.68,North,-999,23.0,26.0,43,0.00,,,0.00,0.00,VWS V14.01,2013-01-08 11:26:00,
2013-01-08 04:31:00,38.9,18.3,29.68,North,-999,23.0,28.0,43,0.00,,,0.00,0.00,VWS V14.01,2013-01-08 11:31:00,
2013-01-08 04:36:00,39.0,18.4,29.69,North,-999,18.0,28.0,43,0.00,,,0.00,0.00,VWS V14.01,2013-01-08 11:36:00,
2013-01-08 04:41:00,39.3,18.1,29.69,North,-999,6.0,18.0,42,0.00,,,0.00,0.00,VWS V14.01,2013-01-08 11:41:00,
2013-01-08 04:46:00,39.3,18.1,29.69,North,-999,0.0,21.0,42,0.00,,,0.00,0.00,VWS V14.01,2013-01-08 11:46:00,
2013-01-08 04:51:00,38.4,17.9,29.70,North,-999,0.0,3.0,43,0.00,,,0.00,0.00,VWS V14.01,2013-01-08 11:51:00,
2013-01-08 04:56:00,37.9,18.0,29.69,North,-999,9.0,12.0,44,0.00,,,0.00,0.00,VWS V14.01,2013-01-08 11:56:00,
2013-01-08 05:01:00,37.9,18.5,29.69,North,-999,10.0,15.0,45,0.00,,,0.00,0.00,VWS V14.01,2013-01-08 12:01:00,
2013-01-08 05:06:00,38.6,18.6,29.69,North,-999,9.0,15.0,44,0.00,,,0.00,0.00,VWS V14.01,2013-01-08 12:06:00,
2013-01-08 05:11:00,38.5,18.5,29.70,North,-999,10.0,15.0,44,0.00,,,0.00,0.00,VWS V14.01,2013-01-08 12:11:00,
2013-01-08 05:16:00,38.2,18.2,29.69,North,-999,14.0,17.0,44,0.00,,,0.00,0.00,VWS V14.01,2013-01-08 12:16:00,
2013-01-08 05:21:00,38.4,18.4,29.70,North,-999,13.0,15.0,44,0.00,,,0.00,0.00,VWS V14.01,2013-01-08 12:21:00,
2013-01-08 05:26:00,38.3,18.3,29.70,North,-999,5.0,15.0,44,0.00,,,0.00,0.00,VWS V14.01,2013-01-08 12:26:00,
2013-01-08 05:31:00,36.2,17.4,29.70,North,-999,2.0,8.0,46,0.00,,,0.00,0.00,VWS V14.01,2013-01-08 12:31:00,
2013-01-08 05:36:00,32.1,16.5,29.70,North,-999,0.0,8.0,52,0.00,,,0.00,0.00,VWS V14.01,2013-01-08 12:36:00,
2013-01-08 05:41:00,30.7,16.9,29.71,North,-999,0.0,0.0,56,0.00,,,0.00,0.00,VWS V14.01,2013-01-08 12:41:00,
2013-01-08 05:46:00,30.6,17.6,29.70,North,-999,2.0,13.0,58,0.00,,,0.00,0.00,VWS V14.01,2013-01-08 12:46:00,
2013-01-08 05:51:00,30.4,17.4,29.71,North,-999,0.0,3.0,58,0.00,,,0.00,0.00,VWS V14.01,2013-01-08 12:51:00,
2013-01-08 05:56:00,29.7,17.1,29.71,North,-999,5.0,10.0,59,0.00,,,0.00,0.00,VWS V14.01,2013-01-08 12:56:00,
2013-01-08 06:01:00,29.5,17.3,29.71,North,-999,0.0,0.0,60,0.00,,,0.00,0.00,VWS V14.01,2013-01-08 13:01:00,
2013-01-08 06:06:00,29.2,16.7,29.71,North,-999,0.0,0.0,59,0.00,,,0.00,0.00,VWS V14.01,2013-01-08 13:06:00,
2013-01-08 06:11:00,29.2,17.1,29.71,North,-999,0.0,0.0,60,0.00,,,0.00,0.00,VWS V14.01,2013-01-08 13:11:00,
2013-01-08 06:16:00,29.6,17.4,29.72,North,-999,4.0,9.0,60,0.00,,,0.00,0.00,VWS V14.01,2013-01-08 13:16:00,
2013-01-08 06:21:00,34.3,19.0,29.72,North,-999,7.0,15.0,53,0.00,,,0.00,0.00,VWS V14.01,2013-01-08 13:21:00,
2013-01-08 06:26:00,37.5,18.6,29.72,North,-999,9.0,18.0,46,0.00,,,0.00,0.00,VWS V14.01,2013-01-08 13:26:00,
2013-01-08 06:31:00,38.1,18.6,29.72,North,-999,12.0,18.0,45,0.00,,,0.00,0.00,VWS V14.01,2013-01-08 13:31:00,
2013-01-08 06:36:00,38.2,18.2,29.72,North,-999,17.0,29.0,44,0.00,,,0.00,0.00,VWS V14.01,2013-01-08 13:36:00,
2013-01-08 06:41:00,39.0,18.4,29.71,North,-999,25.0,40.0,43,0.00,,,0.00,0.00,VWS V14.01,2013-01-08 13:41:00,
2013-01-08 06:46:00,38.9,18.3,29.72,North,-999,24.0,40.0,43,0.00,,,0.00,0.00,VWS V14.01,2013-01-08 13:46:00,
2013-01-08 06:51:00,39.1,18.0,29.72,North,-999,25.0,34.0,42,0.00,,,0.00,0.00,VWS V14.01,2013-01-08 13:51:00,
2013-01-08 06:56:00,39.0,18.4,29.72,North,-999,20.0,35.0,43,0.00,,,0.00,0.00,VWS V14.01,2013-01-08 13:56:00,
2013-01-08 07:01:00,39.0,18.4,29.72,North,-999,29.0,32.0,43,0.00,,,0.00,0.00,VWS V14.01,2013-01-08 14:01:00,
2013-01-08 07:06:00,38.9,18.3,29.72,North,-999,21.0,37.0,43,0.00,,,0.00,0.00,VWS V14.01,2013-01-08 14:06:00,
2013-01-08 07:11:00,39.2,18.0,29.73,North,-999,32.0,34.0,42,0.00,,,0.00,0.00,VWS V14.01,2013-01-08 14:11:00,
2013-01-08 07:16:00,39.1,18.5,29.73,North,-999,32.0,36.0,43,0.00,,,0.00,0.00,VWS V14.01,2013-01-08 14:16:00,
2013-01-08 07:21:00,39.0,17.9,29.72,North,-999,23.0,34.0,42,0.00,,,0.00,0.00,VWS V14.01,2013-01-08 14:21:00,
2013-01-08 07:26:00,38.9,18.3,29.72,North,-999,28.0,35.0,43,0.00,,,0.00,0.00,VWS V14.01,2013-01-08 14:26:00,
2013-01-08 07:31:00,39.1,18.5,29.72,North,-999,28.0,39.0,43,0.00,,,0.00,0.00,VWS V14.01,2013-01-08 14:31:00,
2013-01-08 07:36:00,38.8,18.2,29.72,North,-999,26.0,39.0,43,0.00,,,0.00,0.00,VWS V14.01,2013-01-08 14:36:00,
2013-01-08 07:40:00,38.3,18.3,29.72,North,-999,34.0,34.0,44,0.00,,,0.00,0.00,VWS V14.01,2013-01-08 14:40:00,
2013-01-08 07:45:00,38.4,18.4,29.73,North,-999,26.0,34.0,44,0.00,,,0.00,0.00,VWS V14.01,2013-01-08 14:45:00,
2013-01-08 07:50:00,38.4,18.4,29.73,North,-999,27.0,36.0,44,0.00,,,0.00,5.00,VWS V14.01,2013-01-08 14:50:00,
2013-01-08 07:55:00,38.5,18.5,29.73,North,-999,24.0,36.0,44,0.00,,,0.00,7.00,VWS V14.01,2013-01-08 14:55:00,
2013-01-08 08:00:00,38.1,18.1,29.74,North,-999,23.0,28.0,44,0.00,,,0.00,9.00,VWS V14.01,2013-01-08 15:00:00,
2013-01-08 08:05:00,38.2,18.2,29.74,North,-999,19.0,33.0,44,0.00,,,0.00,12.00,VWS V14.01,2013-01-08 15:05:00,
2013-01-08 08:10:00,37.8,18.4,29.75,North,-999,18.0,30.0,45,0.00,,,0.00,16.00,VWS V14.01,2013-01-08 15:10:00,
2013-01-08 08:15:00,38.3,18.3,29.75,North,-999,28.0,30.0,44,0.00,,,0.00,19.00,VWS V14.01,2013-01-08 15:15:00,
2013-01-08 08:20:00,38.6,18.0,29.75,North,-999,24.0,33.0,43,0.00,,,0.00,25.00,VWS V14.01,2013-01-08 15:20:00,
2013-01-08 08:25:00,38.6,18.0,29.76,North,-999,26.0,33.0,43,0.00,,,0.00,33.00,VWS V14.01,2013-01-08 15:25:00,
2013-01-08 08:30:00,39.1,18.5,29.76,North,-999,21.0,30.0,43,0.00,,,0.00,44.00,VWS V14.01,2013-01-08 15:30:00,
2013-01-08 08:35:00,39.2,18.6,29.76,North,-999,18.0,31.0,43,0.00,,,0.00,53.00,VWS V14.01,2013-01-08 15:35:00,
2013-01-08 08:40:00,39.2,18.6,29.76,North,-999,27.0,33.0,43,0.00,,,0.00,65.00,VWS V14.01,2013-01-08 15:40:00,
2013-01-08 08:45:00,39.5,18.3,29.76,North,-999,22.0,33.0,42,0.00,,,0.00,77.00,VWS V14.01,2013-01-08 15:45:00,
2013-01-08 08:50:00,39.6,18.4,29.76,North,-999,30.0,31.0,42,0.00,,,0.00,90.00,VWS V14.01,2013-01-08 15:50:00,
2013-01-08 08:55:00,39.9,18.1,29.76,North,-999,21.0,35.0,41,0.00,,,0.00,100.00,VWS V14.01,2013-01-08 15:55:00,
2013-01-08 09:00:00,40.0,18.8,29.77,North,-999,17.0,28.0,42,0.00,,,0.00,113.00,VWS V14.01,2013-01-08 16:00:00,
2013-01-08 09:05:00,40.0,18.2,29.77,North,-999,29.0,33.0,41,0.00,,,0.00,125.00,VWS V14.01,2013-01-08 16:05:00,
2013-01-08 09:10:00,40.2,18.4,29.77,North,-999,20.0,35.0,41,0.00,,,0.00,97.00,VWS V14.01,2013-01-08 16:10:00,
2013-01-08 09:15:00,40.3,18.5,29.77,North,-999,25.0,35.0,41,0.00,,,0.00,160.00,VWS V14.01,2013-01-08 16:15:00,
2013-01-08 09:20:00,40.5,18.7,29.78,North,-999,25.0,36.0,41,0.00,,,0.00,178.00,VWS V14.01,2013-01-08 16:20:00,
2013-01-08 09:25:00,40.7,18.3,29.77,North,-999,34.0,37.0,40,0.00,,,0.00,160.00,VWS V14.01,2013-01-08 16:25:00,
2013-01-08 09:30:00,40.7,18.3,29.77,North,-999,24.0,33.0,40,0.00,,,0.00,158.00,VWS V14.01,2013-01-08 16:30:00,
2013-01-08 09:35:00,40.9,17.9,29.78,North,-999,24.0,38.0,39,0.00,,,0.00,190.00,VWS V14.01,2013-01-08 16:35:00,
2013-01-08 09:40:00,41.1,18.6,29.78,North,-999,30.0,30.0,40,0.00,,,0.00,186.00,VWS V14.01,2013-01-08 16:40:00,
2013-01-08 09:45:00,41.0,18.5,29.78,North,-999,26.0,38.0,40,0.00,,,0.00,192.00,VWS V14.01,2013-01-08 16:45:00,
2013-01-08 09:50:00,41.1,18.6,29.78,North,-999,25.0,32.0,40,0.00,,,0.00,241.00,VWS V14.01,2013-01-08 16:50:00,
2013-01-08 09:55:00,41.4,18.9,29.78,North,-999,27.0,32.0,40,0.00,,,0.00,232.00,VWS V14.01,2013-01-08 16:55:00,
2013-01-08 10:00:00,41.7,18.6,29.78,North,-999,33.0,36.0,39,0.00,,,0.00,260.00,VWS V14.01,2013-01-08 17:00:00,
2013-01-08 10:05:00,41.7,18.6,29.79,North,-999,28.0,37.0,39,0.00,,,0.00,265.00,VWS V14.01,2013-01-08 17:05:00,
2013-01-08 10:10:00,41.9,18.2,29.79,North,-999,24.0,37.0,38,0.00,,,0.00,279.00,VWS V14.01,2013-01-08 17:10:00,
2013-01-08 10:15:00,42.0,18.2,29.79,North,-999,28.0,37.0,38,0.00,,,0.00,230.00,VWS V14.01,2013-01-08 17:15:00,
2013-01-08 10:20:00,41.8,18.7,29.79,North,-999,29.0,33.0,39,0.00,,,0.00,269.00,VWS V14.01,2013-01-08 17:20:00,
2013-01-08 10:25:00,41.8,18.1,29.79,North,-999,31.0,37.0,38,0.00,,,0.00,262.00,VWS V14.01,2013-01-08 17:25:00,
2013-01-08 10:30:00,41.9,18.2,29.80,North,-999,36.0,36.0,38,0.00,,,0.00,225.00,VWS V14.01,2013-01-08 17:30:00,
2013-01-08 10:35:00,41.9,18.2,29.80,North,-999,33.0,36.0,38,0.00,,,0.00,262.00,VWS V14.01,2013-01-08 17:35:00,
2013-01-08 10:40:00,41.9,18.2,29.80,North,-999,24.0,34.0,38,0.00,,,0.00,304.00,VWS V14.01,2013-01-08 17:40:00,
2013-01-08 10:45:00,42.3,18.5,29.80,North,-999,32.0,35.0,38,0.00,,,0.00,297.00,VWS V14.01,2013-01-08 17:45:00,
2013-01-08 10:50:00,42.4,18.6,29.80,North,-999,23.0,27.0,38,0.00,,,0.00,265.00,VWS V14.01,2013-01-08 17:50:00,
2013-01-08 10:55:00,42.3,17.9,29.80,North,-999,33.0,39.0,37,0.00,,,0.00,265.00,VWS V14.01,2013-01-08 17:55:00,
2013-01-08 11:00:00,42.3,17.9,29.80,North,-999,28.0,35.0,37,0.00,,,0.00,281.00,VWS V14.01,2013-01-08 18:00:00,
2013-01-08 11:05:00,42.5,18.1,29.80,North,-999,38.0,38.0,37,0.00,,,0.00,327.00,VWS V14.01,2013-01-08 18:05:00,
2013-01-08 11:10:00,42.6,18.2,29.80,North,-999,29.0,34.0,37,0.00,,,0.00,287.00,VWS V14.01,2013-01-08 18:10:00,
2013-01-08 11:15:00,42.7,17.6,29.80,North,-999,26.0,34.0,36,0.00,,,0.00,292.00,VWS V14.01,2013-01-08 18:15:00,
2013-01-08 11:20:00,42.9,18.4,29.80,North,-999,30.0,34.0,37,0.00,,,0.00,332.00,VWS V14.01,2013-01-08 18:20:00,
2013-01-08 11:25:00,43.0,17.9,29.80,North,-999,33.0,38.0,36,0.00,,,0.00,357.00,VWS V14.01,2013-01-08 18:25:00,
2013-01-08 11:30:00,43.1,18.6,29.80,North,-999,18.0,31.0,37,0.00,,,0.00,401.00,VWS V14.01,2013-01-08 18:30:00,
2013-01-08 11:35:00,43.2,17.4,29.80,North,-999,29.0,36.0,35,0.00,,,0.00,401.00,VWS V14.01,2013-01-08 18:35:00,
2013-01-08 11:40:00,43.5,18.3,29.80,North,-999,22.0,30.0,36,0.00,,,0.00,394.00,VWS V14.01,2013-01-08 18:40:00,
2013-01-08 11:45:00,43.6,17.8,29.81,North,-999,35.0,38.0,35,0.00,,,0.00,401.00,VWS V14.01,2013-01-08 18:45:00,
2013-01-08 11:50:00,43.4,17.6,29.81,North,-999,27.0,33.0,35,0.00,,,0.00,403.00,VWS V14.01,2013-01-08 18:50:00,
2013-01-08 11:55:00,43.9,18.0,29.81,North,-999,33.0,34.0,35,0.00,,,0.00,415.00,VWS V14.01,2013-01-08 18:55:00,
2013-01-08 12:00:00,43.8,17.3,29.81,North,-999,33.0,35.0,34,0.00,,,0.00,357.00,VWS V14.01,2013-01-08 19:00:00,
2013-01-08 12:05:00,44.0,17.5,29.81,North,-999,31.0,35.0,34,0.00,,,0.00,417.00,VWS V14.01,2013-01-08 19:05:00,
2013-01-08 12:10:00,44.1,17.5,29.81,North,-999,32.0,33.0,34,0.00,,,0.00,383.00,VWS V14.01,2013-01-08 19:10:00,
2013-01-08 12:15:00,43.8,17.3,29.81,North,-999,32.0,36.0,34,0.00,,,0.00,394.00,VWS V14.01,2013-01-08 19:15:00,
2013-01-08 12:20:00,44.0,17.5,29.81,North,-999,26.0,32.0,34,0.00,,,0.00,338.00,VWS V14.01,2013-01-08 19:20:00,
2013-01-08 12:25:00,43.9,17.4,29.82,North,-999,26.0,35.0,34,0.00,,,0.00,390.00,VWS V14.01,2013-01-08 19:25:00,
2013-01-08 12:30:00,43.9,17.4,29.82,North,-999,22.0,32.0,34,0.00,,,0.00,411.00,VWS V14.01,2013-01-08 19:30:00,
2013-01-08 12:35:00,43.9,17.4,29.82,North,-999,27.0,32.0,34,0.00,,,0.00,394.00,VWS V14.01,2013-01-08 19:35:00,
2013-01-08 12:40:00,43.9,17.4,29.82,North,-999,25.0,36.0,34,0.00,,,0.00,406.00,VWS V14.01,2013-01-08 19:40:00,
2013-01-08 12:45:00,43.9,16.7,29.82,North,-999,25.0,36.0,33,0.00,,,0.00,404.00,VWS V14.01,2013-01-08 19:45:00,
2013-01-08 12:50:00,43.8,17.3,29.82,North,-999,29.0,32.0,34,0.00,,,0.00,397.00,VWS V14.01,2013-01-08 19:50:00,
2013-01-08 12:55:00,44.0,17.5,29.82,North,-999,31.0,33.0,34,0.00,,,0.00,401.00,VWS V14.01,2013-01-08 19:55:00,
2013-01-08 13:00:00,43.9,18.0,29.82,North,-999,18.0,30.0,35,0.00,,,0.00,399.00,VWS V14.01,2013-01-08 20:00:00,
2013-01-08 13:05:00,44.0,17.5,29.82,North,-999,31.0,34.0,34,0.00,,,0.00,396.00,VWS V14.01,2013-01-08 20:05:00,
2013-01-08 13:09:00,44.0,17.5,29.83,North,-999,28.0,33.0,34,0.00,,,0.00,392.00,VWS V14.01,2013-01-08 20:09:00,
2013-01-08 13:14:00,43.8,17.3,29.83,North,-999,26.0,35.0,34,0.00,,,0.00,390.00,VWS V14.01,2013-01-08 20:14:00,
2013-01-08 13:19:00,43.9,17.4,29.83,North,-999,31.0,32.0,34,0.00,,,0.00,385.00,VWS V14.01,2013-01-08 20:19:00,
2013-01-08 13:24:00,43.9,17.4,29.83,North,-999,26.0,33.0,34,0.00,,,0.00,392.00,VWS V14.01,2013-01-08 20:24:00,
2013-01-08 13:29:00,43.9,17.4,29.83,North,-999,16.0,22.0,34,0.00,,,0.00,323.00,VWS V14.01,2013-01-08 20:29:00,
2013-01-08 13:34:00,44.0,17.5,29.83,North,-999,25.0,32.0,34,0.00,,,0.00,244.00,VWS V14.01,2013-01-08 20:34:00,
2013-01-08 13:39:00,43.4,16.9,29.83,North,-999,26.0,29.0,34,0.00,,,0.00,74.00,VWS V14.01,2013-01-08 20:39:00,
2013-01-08 13:44:00,42.9,17.1,29.84,North,-999,21.0,30.0,35,0.00,,,0.00,70.00,VWS V14.01,2013-01-08 20:44:00,
2013-01-08 13:49:00,42.7,17.0,29.84,North,-999,19.0,20.0,35,0.00,,,0.00,72.00,VWS V14.01,2013-01-08 20:49:00,
2013-01-08 13:54:00,42.6,16.9,29.85,North,-999,21.0,27.0,35,0.00,,,0.00,69.00,VWS V14.01,2013-01-08 20:54:00,
2013-01-08 13:59:00,42.6,16.9,29.85,North,-999,17.0,21.0,35,0.00,,,0.00,65.00,VWS V14.01,2013-01-08 20:59:00,
2013-01-08 14:04:00,42.4,16.7,29.85,North,-999,25.0,31.0,35,0.00,,,0.00,62.00,VWS V14.01,2013-01-08 21:04:00,
2013-01-08 14:09:00,42.4,16.7,29.85,North,-999,18.0,19.0,35,0.00,,,0.00,84.00,VWS V14.01,2013-01-08 21:09:00,
2013-01-08 14:14:00,42.5,16.8,29.86,North,-999,15.0,24.0,35,0.00,,,0.00,107.00,VWS V14.01,2013-01-08 21:14:00,
2013-01-08 14:19:00,42.6,16.9,29.86,North,-999,15.0,19.0,35,0.00,,,0.00,130.00,VWS V14.01,2013-01-08 21:19:00,
2013-01-08 14:24:00,42.7,17.0,29.86,North,-999,16.0,19.0,35,0.00,,,0.00,118.00,VWS V14.01,2013-01-08 21:24:00,
2013-01-08 14:29:00,42.8,17.1,29.86,North,-999,18.0,18.0,35,0.00,,,0.00,107.00,VWS V14.01,2013-01-08 21:29:00,
2013-01-08 14:34:00,42.8,17.1,29.86,North,-999,15.0,25.0,35,0.00,,,0.00,120.00,VWS V14.01,2013-01-08 21:34:00,
2013-01-08 14:39:00,42.8,17.1,29.87,North,-999,15.0,24.0,35,0.00,,,0.00,123.00,VWS V14.01,2013-01-08 21:39:00,
2013-01-08 14:44:00,42.9,17.1,29.87,North,-999,28.0,29.0,35,0.00,,,0.00,125.00,VWS V14.01,2013-01-08 21:44:00,
2013-01-08 14:49:00,43.0,17.2,29.87,North,-999,24.0,30.0,35,0.00,,,0.00,111.00,VWS V14.01,2013-01-08 21:49:00,
2013-01-08 14:54:00,43.0,17.2,29.87,North,-999,21.0,30.0,35,0.00,,,0.00,111.00,VWS V14.01,2013-01-08 21:54:00,
2013-01-08 14:59:00,43.0,17.2,29.87,North,-999,22.0,27.0,35,0.00,,,0.00,127.00,VWS V14.01,2013-01-08 21:59:00,
2013-01-08 15:04:00,43.0,17.2,29.87,North,-999,20.0,27.0,35,0.00,,,0.00,113.00,VWS V14.01,2013-01-08 22:04:00,
2013-01-08 15:09:00,43.1,17.3,29.87,North,-999,17.0,25.0,35,0.00,,,0.00,84.00,VWS V14.01,2013-01-08 22:09:00,
2013-01-08 15:14:00,42.7,17.0,29.87,North,-999,19.0,29.0,35,0.00,,,0.00,67.00,VWS V14.01,2013-01-08 22:14:00,
2013-01-08 15:19:00,42.2,17.2,29.88,North,-999,15.0,18.0,36,0.00,,,0.00,54.00,VWS V14.01,2013-01-08 22:19:00,
2013-01-08 15:24:00,42.4,16.7,29.88,North,-999,18.0,24.0,35,0.00,,,0.00,65.00,VWS V14.01,2013-01-08 22:24:00,
2013-01-08 15:29:00,42.2,17.2,29.88,North,-999,22.0,22.0,36,0.00,,,0.00,63.00,VWS V14.01,2013-01-08 22:29:00,
2013-01-08 15:34:00,41.9,17.5,29.88,North,-999,20.0,24.0,37,0.00,,,0.00,49.00,VWS V14.01,2013-01-08 22:34:00,
2013-01-08 15:39:00,41.9,17.5,29.88,North,-999,20.0,23.0,37,0.00,,,0.00,49.00,VWS V14.01,2013-01-08 22:39:00,
2013-01-08 15:44:00,42.1,17.7,29.88,North,-999,22.0,26.0,37,0.00,,,0.00,40.00,VWS V14.01,2013-01-08 22:44:00,
2013-01-08 15:49:00,41.9,18.2,29.88,North,-999,19.0,20.0,38,0.00,,,0.00,33.00,VWS V14.01,2013-01-08 22:49:00,
2013-01-08 15:54:00,42.1,17.7,29.88,North,-999,14.0,22.0,37,0.00,,,0.00,47.00,VWS V14.01,2013-01-08 22:54:00,
2013-01-08 15:59:00,42.3,18.5,29.88,North,-999,14.0,16.0,38,0.00,,,0.00,67.00,VWS V14.01,2013-01-08 22:59:00,
2013-01-08 16:04:00,42.4,18.6,29.88,North,-999,14.0,19.0,38,0.00,,,0.00,51.00,VWS V14.01,2013-01-08 23:04:00,
2013-01-08 16:09:00,42.2,18.4,29.88,North,-999,17.0,18.0,38,0.00,,,0.00,47.00,VWS V14.01,2013-01-08 23:09:00,
2013-01-08 16:14:00,42.1,19.0,29.88,North,-999,14.0,21.0,39,0.00,,,0.00,37.00,VWS V14.01,2013-01-08 23:14:00,
2013-01-08 16:19:00,42.0,18.9,29.88,North,-999,15.0,16.0,39,0.00,,,0.00,26.00,VWS V14.01,2013-01-08 23:19:00,
2013-01-08 16:24:00,41.8,18.7,29.88,North,-999,17.0,21.0,39,0.00,,,0.00,18.00,VWS V14.01,2013-01-08 23:24:00,
2013-01-08 16:29:00,41.4,18.9,29.88,North,-999,15.0,18.0,40,0.00,,,0.00,16.00,VWS V14.01,2013-01-08 23:29:00,
2013-01-08 16:34:00,41.5,19.0,29.88,North,-999,14.0,22.0,40,0.00,,,0.00,12.00,VWS V14.01,2013-01-08 23:34:00,
2013-01-08 16:39:00,41.1,19.2,29.88,North,-999,13.0,14.0,41,0.00,,,0.00,11.00,VWS V14.01,2013-01-08 23:39:00,
2013-01-08 16:44:00,40.7,20.0,29.88,North,-999,14.0,18.0,43,0.00,,,0.00,9.00,VWS V14.01,2013-01-08 23:44:00,
2013-01-08 16:49:00,40.4,19.7,29.88,North,-999,13.0,20.0,43,0.00,,,0.00,5.00,VWS V14.01,2013-01-08 23:49:00,
2013-01-08 16:54:00,40.3,20.1,29.88,North,-999,16.0,22.0,44,0.00,,,0.00,5.00,VWS V14.01,2013-01-08 23:54:00,
2013-01-08 16:59:00,40.2,20.0,29.89,North,-999,15.0,20.0,44,0.00,,,0.00,0.00,VWS V14.01,2013-01-08 23:59:00,
2013-01-08 17:04:00,40.2,20.0,29.89,North,-999,14.0,25.0,44,0.00,,,0.00,0.00,VWS V14.01,2013-01-09 00:04:00,
2013-01-08 17:09:00,40.1,20.5,29.89,North,-999,16.0,16.0,45,0.00,,,0.00,0.00,VWS V14.01,2013-01-09 00:09:00,
2013-01-08 17:14:00,39.9,20.3,29.89,North,-999,19.0,21.0,45,0.00,,,0.00,0.00,VWS V14.01,2013-01-09 00:14:00,
2013-01-08 17:19:00,40.0,20.4,29.89,North,-999,14.0,20.0,45,0.00,,,0.00,0.00,VWS V14.01,2013-01-09 00:19:00,
2013-01-08 17:24:00,39.7,20.6,29.89,North,-999,16.0,20.0,46,0.00,,,0.00,0.00,VWS V14.01,2013-01-09 00:24:00,
2013-01-08 17:29:00,39.3,20.8,29.89,North,-999,13.0,16.0,47,0.00,,,0.00,0.00,VWS V14.01,2013-01-09 00:29:00,
2013-01-08 17:34:00,39.3,20.8,29.89,North,-999,12.0,18.0,47,0.00,,,0.00,0.00,VWS V14.01,2013-01-09 00:34:00,
2013-01-08 17:39:00,39.3,20.8,29.89,North,-999,15.0,16.0,47,0.00,,,0.00,0.00,VWS V14.01,2013-01-09 00:39:00,
2013-01-08 17:44:00,39.3,21.3,29.89,North,-999,15.0,23.0,48,0.00,,,0.00,0.00,VWS V14.01,2013-01-09 00:44:00,
2013-01-08 17:49:00,39.2,20.7,29.89,North,-999,13.0,17.0,47,0.00,,,0.00,0.00,VWS V14.01,2013-01-09 00:49:00,
2013-01-08 17:54:00,39.3,21.3,29.89,North,-999,12.0,18.0,48,0.00,,,0.00,0.00,VWS V14.01,2013-01-09 00:54:00,
2013-01-08 17:59:00,38.8,20.8,29.90,North,-999,9.0,9.0,48,0.00,,,0.00,0.00,VWS V14.01,2013-01-09 00:59:00,
2013-01-08 18:04:00,37.7,21.2,29.90,North,-999,7.0,11.0,51,0.00,,,0.00,0.00,VWS V14.01,2013-01-09 01:04:00,
2013-01-08 18:09:00,37.4,21.4,29.90,North,-999,8.0,8.0,52,0.00,,,0.00,0.00,VWS V14.01,2013-01-09 01:09:00,
2013-01-08 18:14:00,37.0,21.0,29.90,North,-999,15.0,18.0,52,0.00,,,0.00,0.00,VWS V14.01,2013-01-09 01:14:00,
2013-01-08 18:19:00,38.0,22.0,29.91,North,-999,15.0,18.0,52,0.00,,,0.00,0.00,VWS V14.01,2013-01-09 01:19:00,
2013-01-08 18:24:00,38.8,21.3,29.90,North,-999,15.0,21.0,49,0.00,,,0.00,0.00,VWS V14.01,2013-01-09 01:24:00,
2013-01-08 18:29:00,38.4,21.9,29.91,North,-999,15.0,17.0,51,0.00,,,0.00,0.00,VWS V14.01,2013-01-09 01:29:00,
2013-01-08 18:34:00,38.6,21.6,29.90,North,-999,12.0,20.0,50,0.00,,,0.00,0.00,VWS V14.01,2013-01-09 01:34:00,
2013-01-08 18:39:00,38.2,21.2,29.91,North,-999,16.0,16.0,50,0.00,,,0.00,0.00,VWS V14.01,2013-01-09 01:39:00,
2013-01-08 18:44:00,37.9,21.4,29.91,North,-999,12.0,18.0,51,0.00,,,0.00,0.00,VWS V14.01,2013-01-09 01:44:00,
2013-01-08 18:49:00,38.0,21.0,29.91,North,-999,15.0,17.0,50,0.00,,,0.00,0.00,VWS V14.01,2013-01-09 01:49:00,
2013-01-08 18:54:00,38.3,21.3,29.91,North,-999,11.0,19.0,50,0.00,,,0.00,0.00,VWS V14.01,2013-01-09 01:54:00,
2013-01-08 18:58:00,38.9,21.9,29.91,North,-999,14.0,15.0,50,0.00,,,0.00,0.00,VWS V14.01,2013-01-09 01:58:00,
2013-01-08 19:03:00,38.7,21.7,29.90,North,-999,13.0,18.0,50,0.00,,,0.00,0.00,VWS V14.01,2013-01-09 02:03:00,
2013-01-08 19:08:00,38.8,22.2,29.91,North,-999,14.0,16.0,51,0.00,,,0.00,0.00,VWS V14.01,2013-01-09 02:08:00,
2013-01-08 19:13:00,38.4,21.9,29.90,North,-999,14.0,16.0,51,0.00,,,0.00,0.00,VWS V14.01,2013-01-09 02:13:00,
2013-01-08 19:18:00,38.2,21.7,29.91,North,-999,14.0,14.0,51,0.00,,,0.00,0.00,VWS V14.01,2013-01-09 02:18:00,
2013-01-08 19:23:00,37.7,21.2,29.90,North,-999,11.0,14.0,51,0.00,,,0.00,0.00,VWS V14.01,2013-01-09 02:23:00,
2013-01-08 19:28:00,37.4,21.4,29.91,North,-999,15.0,15.0,52,0.00,,,0.00,0.00,VWS V14.01,2013-01-09 02:28:00,
2013-01-08 19:33:00,37.8,20.8,29.91,North,-999,10.0,15.0,50,0.00,,,0.00,0.00,VWS V14.01,2013-01-09 02:33:00,
2013-01-08 19:38:00,38.1,21.1,29.90,North,-999,11.0,12.0,50,0.00,,,0.00,0.00,VWS V14.01,2013-01-09 02:38:00,
2013-01-08 19:43:00,37.8,21.3,29.90,North,-999,11.0,14.0,51,0.00,,,0.00,0.00,VWS V14.01,2013-01-09 02:43:00,
2013-01-08 19:48:00,37.9,20.9,29.90,North,-999,12.0,15.0,50,0.00,,,0.00,0.00,VWS V14.01,2013-01-09 02:48:00,
2013-01-08 19:53:00,37.8,21.3,29.90,North,-999,10.0,14.0,51,0.00,,,0.00,0.00,VWS V14.01,2013-01-09 02:53:00,
2013-01-08 19:58:00,38.5,21.5,29.90,North,-999,13.0,20.0,50,0.00,,,0.00,0.00,VWS V14.01,2013-01-09 02:58:00,
2013-01-08 20:03:00,38.5,21.5,29.91,North,-999,14.0,15.0,50,0.00,,,0.00,0.00,VWS V14.01,2013-01-09 03:03:00,
2013-01-08 20:08:00,38.7,21.2,29.91,North,-999,12.0,16.0,49,0.00,,,0.00,0.00,VWS V14.01,2013-01-09 03:08:00,
2013-01-08 20:13:00,38.2,21.2,29.91,North,-999,12.0,15.0,50,0.00,,,0.00,0.00,VWS V14.01,2013-01-09 03:13:00,
2013-01-08 20:18:00,38.1,21.6,29.91,North,-999,12.0,15.0,51,0.00,,,0.00,0.00,VWS V14.01,2013-01-09 03:18:00,
2013-01-08 20:23:00,37.9,21.4,29.91,North,-999,10.0,14.0,51,0.00,,,0.00,0.00,VWS V14.01,2013-01-09 03:23:00,
2013-01-08 20:28:00,37.6,21.6,29.92,North,-999,9.0,14.0,52,0.00,,,0.00,0.00,VWS V14.01,2013-01-09 03:28:00,
2013-01-08 20:33:00,38.0,22.0,29.93,North,-999,11.0,13.0,52,0.00,,,0.00,0.00,VWS V14.01,2013-01-09 03:33:00,
2013-01-08 20:38:00,38.4,21.9,29.92,North,-999,10.0,14.0,51,0.00,,,0.00,0.00,VWS V14.01,2013-01-09 03:38:00,
2013-01-08 20:43:00,39.2,22.1,29.92,North,-999,10.0,16.0,50,0.00,,,0.00,0.00,VWS V14.01,2013-01-09 03:43:00,
2013-01-08 20:48:00,38.9,21.4,29.92,North,-999,12.0,16.0,49,0.00,,,0.00,0.00,VWS V14.01,2013-01-09 03:48:00,
2013-01-08 20:53:00,39.0,21.5,29.91,North,-999,13.0,15.0,49,0.00,,,0.00,0.00,VWS V14.01,2013-01-09 03:53:00,
2013-01-08 20:58:00,39.0,21.5,29.92,North,-999,14.0,15.0,49,0.00,,,0.00,0.00,VWS V14.01,2013-01-09 03:58:00,
2013-01-08 21:03:00,39.1,21.1,29.91,North,-999,13.0,13.0,48,0.00,,,0.00,0.00,VWS V14.01,2013-01-09 04:03:00,
2013-01-08 21:08:00,38.3,20.8,29.92,North,-999,7.0,14.0,49,0.00,,,0.00,0.00,VWS V14.01,2013-01-09 04:08:00,
2013-01-08 21:13:00,36.5,21.0,29.91,North,-999,3.0,10.0,53,0.00,,,0.00,0.00,VWS V14.01,2013-01-09 04:13:00,
2013-01-08 21:18:00,35.5,21.0,29.92,North,-999,0.0,10.0,55,0.00,,,0.00,0.00,VWS V14.01,2013-01-09 04:18:00,
2013-01-08 21:23:00,35.2,20.7,29.92,North,-999,0.0,0.0,55,0.00,,,0.00,0.00,VWS V14.01,2013-01-09 04:23:00,
2013-01-08 21:28:00,35.2,21.1,29.92,North,-999,0.0,5.0,56,0.00,,,0.00,0.00,VWS V14.01,2013-01-09 04:28:00,
2013-01-08 21:33:00,35.4,20.9,29.92,North,-999,8.0,11.0,55,0.00,,,0.00,0.00,VWS V14.01,2013-01-09 04:33:00,
2013-01-08 21:38:00,35.9,20.9,29.92,North,-999,6.0,11.0,54,0.00,,,0.00,0.00,VWS V14.01,2013-01-09 04:38:00,
2013-01-08 21:43:00,36.5,21.5,29.92,North,-999,7.0,11.0,54,0.00,,,0.00,0.00,VWS V14.01,2013-01-09 04:43:00,
2013-01-08 21:48:00,36.4,20.9,29.92,North,-999,5.0,11.0,53,0.00,,,0.00,0.00,VWS V14.01,2013-01-09 04:48:00,
2013-01-08 21:53:00,36.0,21.4,29.92,North,-999,0.0,9.0,55,0.00,,,0.00,0.00,VWS V14.01,2013-01-09 04:53:00,
2013-01-08 21:58:00,36.5,21.5,29.92,North,-999,7.0,12.0,54,0.00,,,0.00,0.00,VWS V14.01,2013-01-09 04:58:00,
2013-01-08 22:00:00,36.8,21.7,29.91,North,-999,0.0,9.0,54,0.00,,,0.00,0.00,VWS V14.01,2013-01-09 05:00:00,
2013-01-08 22:01:00,36.8,21.7,29.92,North,-999,0.0,9.0,54,0.00,,,0.00,0.00,VWS V14.01,2013-01-09 05:01:00,
2013-01-08 22:03:00,36.9,21.8,29.92,North,-999,11.0,14.0,54,0.00,,,0.00,0.00,VWS V14.01,2013-01-09 05:03:00,
2013-01-08 22:08:00,38.1,22.5,29.92,North,-999,6.0,18.0,53,0.00,,,0.00,0.00,VWS V14.01,2013-01-09 05:08:00,
2013-01-08 22:13:00,39.2,22.1,29.92,North,-999,6.0,13.0,50,0.00,,,0.00,0.00,VWS V14.01,2013-01-09 05:13:00,
2013-01-08 22:18:00,39.3,22.7,29.92,North,-999,9.0,16.0,51,0.00,,,0.00,0.00,VWS V14.01,2013-01-09 05:18:00,
2013-01-08 22:23:00,40.3,22.7,29.93,North,-999,9.0,13.0,49,0.00,,,0.00,0.00,VWS V14.01,2013-01-09 05:23:00,
2013-01-08 22:28:00,41.0,22.8,29.93,North,-999,9.0,16.0,48,0.00,,,0.00,0.00,VWS V14.01,2013-01-09 05:28:00,
2013-01-08 22:33:00,41.1,22.4,29.92,North,-999,4.0,12.0,47,0.00,,,0.00,0.00,VWS V14.01,2013-01-09 05:33:00,
2013-01-08 22:38:00,40.6,22.0,29.93,North,-999,10.0,12.0,47,0.00,,,0.00,0.00,VWS V14.01,2013-01-09 05:38:00,
2013-01-08 22:43:00,40.4,22.3,29.94,North,-999,10.0,13.0,48,0.00,,,0.00,0.00,VWS V14.01,2013-01-09 05:43:00,
2013-01-08 22:48:00,40.3,22.7,29.94,North,-999,11.0,13.0,49,0.00,,,0.00,0.00,VWS V14.01,2013-01-09 05:48:00,
2013-01-08 22:53:00,39.8,21.7,29.94,North,-999,2.0,12.0,48,0.00,,,0.00,0.00,VWS V14.01,2013-01-09 05:53:00,
2013-01-08 22:58:00,35.7,19.8,29.94,North,-999,0.0,12.0,52,0.00,,,0.00,0.00,VWS V14.01,2013-01-09 05:58:00,
2013-01-08 23:03:00,34.5,21.3,29.94,North,-999,0.0,6.0,58,0.00,,,0.00,0.00,VWS V14.01,2013-01-09 06:03:00,
2013-01-08 23:08:00,35.7,21.1,29.95,North,-999,9.0,9.0,55,0.00,,,0.00,0.00,VWS V14.01,2013-01-09 06:08:00,
2013-01-08 23:13:00,32.3,19.2,29.95,North,-999,3.0,9.0,58,0.00,,,0.00,0.00,VWS V14.01,2013-01-09 06:13:00,
2013-01-08 23:18:00,29.7,19.0,29.94,North,-999,6.0,10.0,64,0.00,,,0.00,0.00,VWS V14.01,2013-01-09 06:18:00,
2013-01-08 23:23:00,28.7,19.1,29.95,North,-999,0.0,9.0,67,0.00,,,0.00,0.00,VWS V14.01,2013-01-09 06:23:00,
2013-01-08 23:28:00,28.2,19.0,29.95,North,-999,0.0,9.0,68,0.00,,,0.00,0.00,VWS V14.01,2013-01-09 06:28:00,
2013-01-08 23:33:00,28.4,19.9,29.95,North,-999,0.0,10.0,70,0.00,,,0.00,0.00,VWS V14.01,2013-01-09 06:33:00,
2013-01-08 23:38:00,28.8,19.6,29.95,North,-999,3.0,11.0,68,0.00,,,0.00,0.00,VWS V14.01,2013-01-09 06:38:00,
2013-01-08 23:43:00,28.3,19.1,29.94,North,-999,6.0,10.0,68,0.00,,,0.00,0.00,VWS V14.01,2013-01-09 06:43:00,
2013-01-08 23:47:00,28.2,19.7,29.95,North,-999,0.0,10.0,70,0.00,,,0.00,0.00,VWS V14.01,2013-01-09 06:47:00,
2013-01-08 23:52:00,28.1,19.3,29.95,North,-999,5.0,5.0,69,0.00,,,0.00,0.00,VWS V14.01,2013-01-09 06:52:00,
2013-01-08 23:57:00,28.9,20.0,29.94,North,-999,8.0,8.0,69,0.00,,,0.00,0.00,VWS V14.01,2013-01-09 06:57:00,